Weather History for KTWF - May, 2013

Change the Weather History Date:

Thursday, May 16, 2013

  Actual Average Record
Temperature  
Mean Temperature 60 °F -  
Max Temperature 66 °F 70 °F 89 °F (2006)
Min Temperature 53 °F 43 °F 32 °F (1986)
Degree Days  
Heating Degree Days 5 9  
Month to date heating degree days 102 177  
Since 1 July heating degree days 5554 5975  
Cooling Degree Days 0 1  
Month to date cooling degree days 25 4  
Year to date cooling degree days 25 5  
Growing Degree Days 10 (Base 50)    
Moisture  
Dew Point 40 °F    
Average Humidity 59    
Maximum Humidity 83    
Minimum Humidity 34    
Precipitation  
Precipitation 0.13 in 0.04 in 0.79 in (2005)
Month to date precipitation 0.15 0.70  
Year to date precipitation 2.65 4.67  
Sea Level Pressure  
Sea Level Pressure 29.77 in    
Wind  
Wind Speed 10 mph (SW)    
Max Wind Speed 20 mph    
Max Gust Speed 24 mph    
Visibility 10 miles    
Events Rain    
T = Trace of Precipitation, MM = Missing Value Source: NWS Daily Summary

Daily Weather History Graph

Daily Weather History Graph

Search for Another Location

Airport or City:

Trip Planner

Search our weather history database for the weather conditions in past years. The results will help you decide how hot, cold, wet, or windy it might be!

Date:

Astronomy

May. 16, 2013 Rise Set
Actual Time 6:14 AM MDT 8:54 PM MDT
Civil Twilight 5:42 AM MDT 9:26 PM MDT
Nautical Twilight 5:01 AM MDT 10:07 PM MDT
Astronomical Twilight 4:15 AM MDT 10:54 PM MDT
Moon 11:54 AM MDT (5/16) 1:15 AM MDT (5/16)
Length of Visible Light 15h 44m
Length of Day
14h 39m
Waxing Crescent, 36% of the Moon is Illuminated
May 16
Waxing Crescent
May 17
First Quarter
May 24
Full
May 31
Last Quarter
Jun 8
New

Hourly Weather History & Observations

Time (MDT) Temp. Dew Point Humidity Pressure Visibility Wind Dir Wind Speed Gust Speed Precip Events Conditions
12:53 AM 62.1 °F 35.1 °F 37% 29.74 in 10.0 mi SSW 12.7 mph - N/A   Mostly Cloudy
1:53 AM 62.1 °F 34.0 °F 35% 29.74 in 10.0 mi SSW 10.4 mph - N/A   Mostly Cloudy
2:53 AM 59.0 °F 35.1 °F 41% 29.74 in 10.0 mi South 11.5 mph - N/A   Mostly Cloudy
3:53 AM 55.0 °F 36.0 °F 49% 29.75 in 10.0 mi SSW 10.4 mph - N/A   Clear
4:53 AM 57.9 °F 35.1 °F 42% 29.74 in 10.0 mi SW 12.7 mph - N/A   Scattered Clouds
5:53 AM 57.0 °F 34.0 °F 42% 29.74 in 10.0 mi SSW 12.7 mph - N/A   Overcast
6:53 AM 55.9 °F 34.0 °F 44% 29.76 in 10.0 mi SSW 13.8 mph - 0.00 in   Mostly Cloudy
7:53 AM 57.9 °F 36.0 °F 44% 29.77 in 10.0 mi SW 13.8 mph - 0.00 in   Scattered Clouds
8:53 AM 59.0 °F 36.0 °F 42% 29.80 in 10.0 mi WSW 13.8 mph - N/A   Scattered Clouds
9:53 AM 63.0 °F 37.0 °F 38% 29.80 in 10.0 mi WSW 17.3 mph - N/A   Clear
10:53 AM 63.0 °F 37.9 °F 40% 29.80 in 10.0 mi West 16.1 mph 20.7 mph N/A   Unknown
11:53 AM 66.0 °F 37.9 °F 36% 29.79 in 10.0 mi West 18.4 mph - 0.09 in   Clear
12:53 PM 64.0 °F 37.0 °F 37% 29.78 in 10.0 mi West 18.4 mph - N/A   Unknown
1:53 PM 62.1 °F 39.0 °F 43% 29.79 in 10.0 mi West 15.0 mph - N/A   Unknown
2:53 PM 57.9 °F 46.0 °F 65% 29.82 in 10.0 mi West 12.7 mph - 0.00 in Rain Light Rain
4:53 PM 59.0 °F 45.0 °F 60% 29.80 in 10.0 mi SW 5.8 mph - 0.00 in   Overcast
5:53 PM 57.9 °F 45.0 °F 62% 29.79 in 10.0 mi South 3.5 mph - 0.00 in   Overcast
6:53 PM 59.0 °F 45.0 °F 60% 29.77 in 10.0 mi Calm Calm - 0.00 in   Overcast
7:53 PM 59.0 °F 46.0 °F 62% 29.75 in 10.0 mi East 3.5 mph - N/A   Clear
8:53 PM 55.0 °F 46.0 °F 72% 29.76 in 10.0 mi East 4.6 mph - N/A   Scattered Clouds
9:53 PM 54.0 °F 46.9 °F 77% 29.76 in 10.0 mi ESE 4.6 mph - 0.00 in   Overcast
10:53 PM 54.0 °F 48.0 °F 80% 29.77 in 10.0 mi Calm Calm - 0.01 in Rain Light Rain
11:53 PM 54.0 °F 48.9 °F 83% 29.77 in 8.0 mi SSW 8.1 mph - 0.01 in Rain Light Rain